TimeEDT,TemperatureF,Dew PointF,Humidity,Sea Level PressureIn,VisibilityMPH,Wind Direction,Wind SpeedMPH,Gust SpeedMPH,PrecipitationIn,Events,Conditions,WindDirDegrees,DateUTC
12:55 AM,51.6,35.1,53,30.06,4.0,NW,8.1,17.3,N/A,,Haze,320,2012-10-07 04:55:00
1:55 AM,48.2,38.1,68,30.06,3.0,NNW,4.6,-,N/A,,Haze,340,2012-10-07 05:55:00
1:59 AM,48.2,37.4,66,30.06,2.5,NNW,4.6,-,N/A,,Haze,340,2012-10-07 05:59:00
2:13 AM,50.0,35.6,58,30.05,3.0,Variable,4.6,-,N/A,,Haze,0,2012-10-07 06:13:00
2:49 AM,50.0,33.8,54,30.04,2.5,Variable,4.6,-,N/A,,Haze,0,2012-10-07 06:49:00
2:55 AM,50.0,34.3,55,30.04,2.5,Calm,Calm,-,N/A,,Haze,0,2012-10-07 06:55:00
2:57 AM,50.0,35.6,58,30.05,3.0,Calm,Calm,-,N/A,,Haze,0,2012-10-07 06:57:00
3:17 AM,50.0,33.8,54,30.04,2.5,Variable,3.5,-,N/A,,Haze,0,2012-10-07 07:17:00
3:39 AM,50.0,33.8,54,30.03,3.0,NW,5.8,-,N/A,,Haze,320,2012-10-07 07:39:00
3:48 AM,50.0,33.8,54,30.03,2.5,Variable,4.6,-,N/A,,Haze,0,2012-10-07 07:48:00
3:55 AM,49.6,34.0,55,30.03,2.5,Calm,Calm,-,N/A,,Haze,0,2012-10-07 07:55:00
4:13 AM,50.0,33.8,54,30.03,3.0,Calm,Calm,-,N/A,,Haze,0,2012-10-07 08:13:00
4:22 AM,50.0,33.8,54,30.04,2.5,Calm,Calm,-,N/A,,Haze,0,2012-10-07 08:22:00
4:30 AM,50.0,33.8,54,30.04,3.0,Calm,Calm,-,N/A,,Haze,0,2012-10-07 08:30:00
4:55 AM,47.5,36.3,65,30.06,3.0,SE,3.5,-,N/A,,Haze,140,2012-10-07 08:55:00
4:58 AM,48.2,37.4,66,30.07,2.5,Calm,Calm,-,N/A,,Haze,0,2012-10-07 08:58:00
5:22 AM,46.4,39.2,76,30.07,3.0,Calm,Calm,-,N/A,,Haze,0,2012-10-07 09:22:00
5:48 AM,46.4,39.2,76,30.08,2.5,Calm,Calm,-,N/A,,Haze,0,2012-10-07 09:48:00
5:55 AM,46.8,39.2,75,30.09,2.5,Calm,Calm,-,N/A,,Haze,0,2012-10-07 09:55:00
6:02 AM,46.4,41.0,81,30.09,3.0,Calm,Calm,-,N/A,,Haze,0,2012-10-07 10:02:00
6:19 AM,46.4,41.0,81,30.09,2.5,Calm,Calm,-,N/A,,Haze,0,2012-10-07 10:19:00
6:44 AM,46.4,41.0,81,30.09,3.0,North,5.8,-,N/A,,Haze,360,2012-10-07 10:44:00
6:47 AM,46.4,41.0,81,30.09,2.5,Calm,Calm,-,N/A,,Haze,0,2012-10-07 10:47:00
6:55 AM,46.4,40.1,79,30.09,2.0,NE,3.5,-,N/A,,Haze,50,2012-10-07 10:55:00
7:15 AM,46.4,41.0,81,30.09,1.8,Calm,Calm,-,N/A,,Haze,0,2012-10-07 11:15:00
7:17 AM,46.4,41.0,81,30.09,1.5,Calm,Calm,-,N/A,,Haze,0,2012-10-07 11:17:00
7:24 AM,46.4,41.0,81,30.10,1.2,Calm,Calm,-,N/A,,Haze,0,2012-10-07 11:24:00
7:27 AM,46.4,41.0,81,30.10,1.5,Calm,Calm,-,N/A,,Haze,0,2012-10-07 11:27:00
7:34 AM,46.4,41.0,81,30.10,1.5,Calm,Calm,-,N/A,,Haze,0,2012-10-07 11:34:00
7:46 AM,46.4,41.0,81,30.11,1.2,Calm,Calm,-,N/A,,Haze,0,2012-10-07 11:46:00
7:49 AM,46.4,42.8,87,30.11,1.5,Calm,Calm,-,N/A,,Haze,0,2012-10-07 11:49:00
7:52 AM,46.4,41.0,81,30.12,1.8,Calm,Calm,-,N/A,,Haze,0,2012-10-07 11:52:00
7:54 AM,46.4,41.0,81,30.12,2.0,Calm,Calm,-,N/A,,Haze,0,2012-10-07 11:54:00
7:55 AM,46.4,41.7,84,30.12,2.0,Calm,Calm,-,N/A,,Haze,0,2012-10-07 11:55:00
7:58 AM,46.4,41.0,81,30.12,2.5,Calm,Calm,-,N/A,,Light Drizzle,0,2012-10-07 11:58:00
8:03 AM,46.4,41.0,81,30.12,1.8,Calm,Calm,-,N/A,Rain,Light Rain,0,2012-10-07 12:03:00
8:06 AM,46.4,42.8,87,30.12,1.5,Calm,Calm,-,N/A,Rain,Light Rain,0,2012-10-07 12:06:00
8:09 AM,46.4,42.8,87,30.11,1.2,Calm,Calm,-,N/A,Rain,Light Rain,0,2012-10-07 12:09:00
8:17 AM,46.4,42.8,87,30.12,1.5,Calm,Calm,-,N/A,Rain,Light Rain,0,2012-10-07 12:17:00
8:21 AM,46.4,42.8,87,30.12,1.8,Calm,Calm,-,N/A,Rain,Light Rain,0,2012-10-07 12:21:00
8:34 AM,46.4,42.8,87,30.12,2.0,Calm,Calm,-,N/A,,Partly Cloudy,0,2012-10-07 12:34:00
8:41 AM,46.4,42.8,87,30.12,1.8,Calm,Calm,-,N/A,,Clear,0,2012-10-07 12:41:00
8:43 AM,46.4,44.6,93,30.12,1.8,Calm,Calm,-,N/A,,Light Drizzle,0,2012-10-07 12:43:00
8:55 AM,46.9,44.1,90,30.13,1.8,Calm,Calm,-,0.01,,Light Drizzle,0,2012-10-07 12:55:00
8:56 AM,46.4,44.6,93,30.13,1.8,Calm,Calm,-,N/A,,Clear,0,2012-10-07 12:56:00
8:59 AM,46.4,42.8,87,30.13,1.5,Calm,Calm,-,N/A,,Clear,0,2012-10-07 12:59:00
9:05 AM,46.4,44.6,93,30.13,1.8,Calm,Calm,-,N/A,,Clear,0,2012-10-07 13:05:00
9:10 AM,48.2,42.8,82,30.13,2.0,Calm,Calm,-,N/A,,Clear,0,2012-10-07 13:10:00
9:36 AM,48.2,42.8,82,30.13,1.8,Calm,Calm,-,N/A,,Haze,0,2012-10-07 13:36:00
9:43 AM,48.2,42.8,82,30.13,2.0,Calm,Calm,-,N/A,,Haze,0,2012-10-07 13:43:00
9:48 AM,48.2,42.8,82,30.13,1.8,Calm,Calm,-,N/A,,Haze,0,2012-10-07 13:48:00
9:55 AM,48.6,42.8,80,30.13,1.8,Calm,Calm,-,N/A,,Haze,0,2012-10-07 13:55:00
10:08 AM,48.2,42.8,82,30.13,2.0,Calm,Calm,-,N/A,,Haze,0,2012-10-07 14:08:00
10:50 AM,50.0,42.8,76,30.12,1.8,Calm,Calm,-,N/A,,Haze,0,2012-10-07 14:50:00
10:55 AM,49.6,43.0,78,30.12,1.5,Calm,Calm,-,N/A,,Haze,0,2012-10-07 14:55:00
11:04 AM,50.0,42.8,76,30.12,1.8,Calm,Calm,-,N/A,,Haze,0,2012-10-07 15:04:00
11:09 AM,50.0,41.0,71,30.12,2.0,Calm,Calm,-,N/A,,Haze,0,2012-10-07 15:09:00
11:24 AM,50.0,42.8,76,30.12,3.0,Calm,Calm,-,N/A,,Haze,0,2012-10-07 15:24:00
11:55 AM,52.0,42.3,69,30.11,3.0,Variable,3.5,-,N/A,,Haze,0,2012-10-07 15:55:00
12:32 PM,53.6,41.0,62,30.11,2.5,Calm,Calm,-,N/A,,Haze,0,2012-10-07 16:32:00
12:41 PM,53.6,39.2,58,30.10,3.0,South,6.9,-,N/A,,Haze,190,2012-10-07 16:41:00
12:55 PM,53.4,39.0,58,30.10,3.0,SW,6.9,-,N/A,,Haze,220,2012-10-07 16:55:00
1:55 PM,54.1,39.0,57,30.07,4.0,SSW,8.1,-,N/A,,Haze,200,2012-10-07 17:55:00
2:55 PM,53.4,39.6,59,30.06,3.0,SW,8.1,-,N/A,,Haze,220,2012-10-07 18:55:00
3:55 PM,53.2,40.1,61,30.04,3.0,SSW,4.6,-,N/A,,Haze,210,2012-10-07 19:55:00
4:38 PM,51.8,39.2,62,30.04,3.0,SW,6.9,-,N/A,,Light Drizzle,220,2012-10-07 20:38:00
4:55 PM,52.2,40.5,64,30.04,3.0,SSW,4.6,-,0.00,,Light Drizzle,210,2012-10-07 20:55:00
5:00 PM,51.8,41.0,67,30.04,3.0,SW,4.6,-,N/A,,Haze,230,2012-10-07 21:00:00
5:02 PM,51.8,41.0,67,30.04,3.0,SW,4.6,-,N/A,,Light Drizzle,220,2012-10-07 21:02:00
5:12 PM,51.8,41.0,67,30.06,3.0,WSW,6.9,-,N/A,,Haze,250,2012-10-07 21:12:00
5:21 PM,51.8,41.0,67,30.07,3.0,WSW,8.1,-,N/A,,Light Drizzle,250,2012-10-07 21:21:00
5:47 PM,51.8,42.8,71,30.06,2.5,WNW,3.5,-,N/A,,Light Drizzle,290,2012-10-07 21:47:00
5:55 PM,50.5,43.0,75,30.07,2.5,West,4.6,-,0.00,,Light Drizzle,280,2012-10-07 21:55:00
5:57 PM,50.0,42.8,76,30.07,3.0,West,4.6,-,N/A,,Light Drizzle,280,2012-10-07 21:57:00
5:58 PM,50.0,42.8,76,30.07,3.0,West,3.5,-,N/A,,Haze,280,2012-10-07 21:58:00
6:07 PM,50.0,42.8,76,30.08,3.0,West,6.9,-,N/A,Rain,Light Rain,280,2012-10-07 22:07:00
6:55 PM,48.9,45.3,87,30.09,4.0,SW,3.5,-,0.03,Rain,Light Rain,230,2012-10-07 22:55:00
7:47 PM,48.2,46.4,93,30.11,5.0,SW,4.6,-,N/A,,Partly Cloudy,220,2012-10-07 23:47:00
7:55 PM,48.4,45.3,89,30.11,5.0,SW,4.6,-,0.01,,Scattered Clouds,230,2012-10-07 23:55:00
8:32 PM,48.2,42.8,82,30.12,4.0,West,10.4,-,N/A,,Light Drizzle,280,2012-10-08 00:32:00
8:42 PM,48.2,42.8,82,30.13,4.0,Variable,4.6,-,N/A,,Haze,0,2012-10-08 00:42:00
8:55 PM,47.7,42.6,83,30.13,4.0,NW,5.8,-,0.00,,Haze,320,2012-10-08 00:55:00
9:55 PM,46.9,41.4,81,30.13,4.0,West,5.8,-,N/A,,Haze,280,2012-10-08 01:55:00
10:55 PM,46.4,40.1,79,30.15,8.0,West,4.6,-,N/A,,Partly Cloudy,270,2012-10-08 02:55:00
11:06 PM,46.4,39.2,76,30.15,7.0,West,11.5,16.1,N/A,,Mostly Cloudy,270,2012-10-08 03:06:00
11:20 PM,46.4,39.2,76,30.16,7.0,West,9.2,-,N/A,,Mostly Cloudy,270,2012-10-08 03:20:00
11:33 PM,46.4,39.2,76,30.16,10.0,West,9.2,-,N/A,,Mostly Cloudy,280,2012-10-08 03:33:00
11:50 PM,46.4,37.4,71,30.16,10.0,WNW,4.6,17.3,N/A,,Scattered Clouds,300,2012-10-08 03:50:00
11:55 PM,45.7,37.8,74,30.16,9.0,WNW,6.9,17.3,N/A,,Scattered Clouds,290,2012-10-08 03:55:00